El Centro, CA

9:24 PM PDT on May 25, 2017 (GMT -0700)
El Centro Naval Air Facility

Weather History for KNJK - April, 2014

Change the Weather History Date:

Saturday, April 26, 2014

  Actual Average Record
Temperature  
Mean Temperature 68 °F -  
Max Temperature 75 °F 85 °F 100 °F (2004)
Min Temperature 60 °F 59 °F 55 °F (2015)
Cooling Degree Days 2    
Growing Degree Days 18 (Base 50)    
Moisture  
Dew Point 37 °F    
Average Humidity 36    
Maximum Humidity 50    
Minimum Humidity 20    
Precipitation  
Precipitation 0.00 in - - ()
Sea Level Pressure  
Sea Level Pressure 29.83 in    
Wind  
Wind Speed 25 mph (WSW)    
Max Wind Speed 40 mph    
Max Gust Speed 52 mph    
Visibility 8 miles    
Events      
Averages and records for this station are not official NWS values.
T = Trace of Precipitation, MM = Missing Value Source: NWS Daily Summary

Daily Weather History Graph

Daily Weather History Graph

Search for Another Location

Airport or City:

Trip Planner

Search our weather history database for the weather conditions in past years. The results will help you decide how hot, cold, wet, or windy it might be!

Date:

Astronomy

Apr. 26, 2014 Rise Set
Actual Time 6:00 AM PDT 7:20 PM PDT
Civil Twilight 5:34 AM PDT 7:46 PM PDT
Nautical Twilight 5:03 AM PDT 8:18 PM PDT
Astronomical Twilight 4:31 AM PDT 8:50 PM PDT
Moon 4:17 AM PDT 5:01 PM PDT
Length of Visible Light 14h 12m
Length of Day
13h 20m
Waning Crescent, 7% of the Moon is Illuminated
Apr 26
Waning Crescent
Apr 28
New
May 6
First Quarter
May 14
Full
May 21
Last Quarter

Hourly Weather History & Observations

Time (PDT) Temp. Dew Point Humidity Pressure Visibility Wind Dir Wind Speed Gust Speed Precip Events Conditions
12:56 AM 66.0 °F 42.1 °F 42% 29.74 in 9.0 mi WSW 32.2 mph 40.3 mph N/A   Clear
1:56 AM 64.9 °F 39.9 °F 40% 29.73 in 10.0 mi SW 26.5 mph 35.7 mph N/A   Clear
2:56 AM 64.0 °F 39.9 °F 41% 29.70 in 10.0 mi South 8.1 mph - N/A   Clear
3:56 AM 63.0 °F 42.1 °F 46% 29.73 in 10.0 mi West 25.3 mph 33.4 mph N/A   Clear
4:21 AM 64.0 °F 44.1 °F 48% 29.70 in 1.8 mi WSW 40.3 mph 51.8 mph N/A   Haze
4:29 AM 63.0 °F 44.1 °F 50% 29.70 in 3.0 mi WSW 34.5 mph 51.8 mph N/A   Haze
4:56 AM 62.1 °F 43.0 °F 50% 29.75 in 10.0 mi West 18.4 mph 41.4 mph N/A   Mostly Cloudy
5:56 AM 60.1 °F 36.0 °F 41% 29.78 in 10.0 mi WNW 18.4 mph - N/A   Mostly Cloudy
6:56 AM 60.1 °F 33.1 °F 36% 29.82 in 6.0 mi West 17.3 mph - N/A   Scattered Clouds
7:56 AM 62.1 °F 34.0 °F 35% 29.85 in 6.0 mi West 15.0 mph - N/A   Partly Cloudy
8:56 AM 64.9 °F 35.1 °F 33% 29.88 in 6.0 mi WSW 25.3 mph 35.7 mph N/A   Partly Cloudy
9:56 AM 66.9 °F 34.0 °F 30% 29.87 in 6.0 mi WSW 26.5 mph - N/A   Partly Cloudy
10:56 AM 70.0 °F 32.0 °F 25% 29.88 in 6.0 mi West 27.6 mph 36.8 mph N/A   Partly Cloudy
11:56 AM 71.1 °F 34.0 °F 26% 29.88 in 6.0 mi WSW 18.4 mph 31.1 mph N/A   Partly Cloudy
12:56 PM 73.4 °F 35.6 °F 25% 29.86 in 6.0 mi West 23.0 mph 31.1 mph N/A   Widespread Dust
1:56 PM 75.2 °F 33.8 °F 22% 29.86 in 6.0 mi West 18.4 mph 35.7 mph N/A   Widespread Dust
2:56 PM 73.4 °F 35.6 °F 25% 29.86 in 6.0 mi WSW 26.5 mph 36.8 mph N/A   Widespread Dust
3:56 PM 75.0 °F 32.0 °F 21% 29.85 in 10.0 mi WNW 24.2 mph 32.2 mph N/A   Mostly Cloudy
4:56 PM 73.9 °F 30.0 °F 20% 29.85 in 10.0 mi West 24.2 mph 34.5 mph N/A   Partly Cloudy
5:56 PM 72.0 °F 32.0 °F 23% 29.86 in 10.0 mi West 24.2 mph - N/A   Clear
6:56 PM 66.9 °F 37.0 °F 33% 29.86 in 10.0 mi WSW 26.5 mph 36.8 mph N/A   Clear
7:56 PM 64.0 °F 39.0 °F 40% 29.87 in 8.0 mi West 31.1 mph 40.3 mph N/A   Clear
8:56 PM 63.0 °F 37.9 °F 40% 29.90 in 10.0 mi WSW 20.7 mph 26.5 mph N/A   Clear
9:56 PM 62.1 °F 39.0 °F 43% 29.93 in 10.0 mi WSW 23.0 mph 34.5 mph N/A   Clear
10:56 PM 61.0 °F 39.0 °F 44% 29.93 in 10.0 mi WSW 23.0 mph - N/A   Clear
11:56 PM 61.0 °F 39.9 °F 46% 29.93 in 10.0 mi WSW 19.6 mph 25.3 mph N/A   Clear